| time (UTC) | temp F | wind direction | speed MPH | gust MPH | rain 1hr in | rain 24hr in | rain mn in | humidity % | barometer mb |
| 20260505223018 | 55 | 322 | 2.0 | 8.0 | 0.00 | 0.13 | 0.11 | 43 | 1009.3 |
| 20260505221517 | 55 | 316 | 2.0 | 6.0 | 0.00 | 0.13 | 0.11 | 44 | 1009.3 |
| 20260505220021 | 55 | 325 | 1.0 | 5.0 | 0.00 | 0.16 | 0.11 | 44 | 1009.2 |
| 20260505214516 | 55 | 306 | 2.0 | 7.0 | 0.00 | 0.16 | 0.11 | 42 | 1009.4 |
| 20260505213016 | 55 | 309 | 2.0 | 8.0 | 0.00 | 0.16 | 0.11 | 43 | 1009.4 |
| 20260505211516 | 55 | 326 | 3.0 | 6.0 | 0.00 | 0.16 | 0.11 | 41 | 1009.5 |
| 20260505210015 | 55 | 316 | 2.0 | 10.0 | 0.00 | 0.16 | 0.11 | 41 | 1009.4 |
| 20260505204514 | 55 | 311 | 2.0 | 6.0 | 0.00 | 0.16 | 0.11 | 40 | 1009.6 |
| 20260505203018 | 55 | 301 | 4.0 | 8.0 | 0.00 | 0.16 | 0.11 | 39 | 1009.6 |
| 20260505201514 | 55 | 309 | 2.0 | 10.0 | 0.00 | 0.16 | 0.11 | 41 | 1009.7 |
| 20260505200012 | 55 | 311 | 2.0 | 5.0 | 0.00 | 0.16 | 0.11 | 42 | 1009.7 |
| 20260505194511 | 55 | 328 | 2.0 | 5.0 | 0.00 | 0.16 | 0.11 | 40 | 1009.7 |
| 20260505193011 | 55 | 313 | 2.0 | 7.0 | 0.00 | 0.16 | 0.11 | 43 | 1009.5 |
| 20260505191509 | 56 | 242 | 1.0 | 8.0 | 0.00 | 0.16 | 0.11 | 43 | 1009.8 |
| 20260505190010 | 55 | 305 | 2.0 | 6.0 | 0.00 | 0.16 | 0.11 | 42 | 1010.0 |
| 20260505184508 | 55 | 306 | 3.0 | 8.0 | 0.00 | 0.16 | 0.11 | 43 | 1009.8 |
| 20260505183007 | 55 | 263 | 1.0 | 6.0 | 0.00 | 0.16 | 0.11 | 48 | 1009.8 |
| 20260505181507 | 55 | 303 | 2.0 | 8.0 | 0.00 | 0.16 | 0.11 | 47 | 1009.8 |
| 20260505180010 | 55 | 320 | 4.0 | 8.0 | 0.00 | 0.16 | 0.11 | 43 | 1009.7 |
| 20260505174505 | 55 | 306 | 2.0 | 7.0 | 0.00 | 0.16 | 0.11 | 46 | 1009.7 |
| 20260505173005 | 55 | 345 | 4.0 | 8.0 | 0.00 | 0.16 | 0.11 | 42 | 1009.6 |
| 20260505171504 | 55 | 339 | 4.0 | 10.0 | 0.00 | 0.16 | 0.11 | 44 | 1009.3 |
| 20260505170003 | 55 | 281 | 3.0 | 6.0 | 0.00 | 0.16 | 0.11 | 45 | 1009.2 |
| 20260505164504 | 55 | 289 | 5.0 | 10.0 | 0.00 | 0.16 | 0.11 | 42 | 1009.0 |
| 20260505163002 | 55 | 316 | 2.0 | 6.0 | 0.00 | 0.16 | 0.11 | 48 | 1009.0 |
| 20260505161600 | 54 | 334 | 3.0 | 10.0 | 0.00 | 0.16 | 0.11 | 48 | 1009.6 |
| 20260505153056 | 52 | 288 | 3.0 | 8.0 | 0.00 | 0.16 | 0.11 | 61 | 1009.2 |
| 20260505151554 | 51 | 339 | 0.0 | 5.0 | 0.00 | 0.16 | 0.11 | 70 | 1008.9 |
| 20260505124533 | 44 | 342 | 0.0 | 4.0 | 0.08 | 0.13 | 0.08 | 88 | 1008.7 |
| 20260505123034 | 44 | 342 | 1.0 | 4.0 | 0.07 | 0.12 | 0.07 | 86 | 1009.6 |
| 20260505121527 | 45 | 342 | 1.0 | 3.0 | 0.05 | 0.10 | 0.05 | 80 | 1009.0 |
| 20260505120025 | 46 | 342 | 3.0 | 9.0 | 0.02 | 0.07 | 0.02 | 75 | 1009.3 |
| 20260505114519 | 47 | 283 | 1.0 | 5.0 | 0.00 | 0.05 | 0.00 | 69 | 1009.2 |
| 20260505113017 | 49 | 348 | 3.0 | 5.0 | 0.00 | 0.05 | 0.00 | 61 | 1008.2 |
| 20260505111518 | 50 | 339 | 3.0 | 11.0 | 0.00 | 0.05 | 0.00 | 58 | 1008.2 |
| 20260505101507 | 52 | 295 | 2.0 | 5.0 | 0.00 | 0.05 | 0.00 | 58 | 1007.3 |
| 20260505100107 | 52 | 331 | 2.0 | 6.0 | 0.00 | 0.05 | 0.00 | 60 | 1006.4 |
| 20260505100007 | 52 | 327 | 2.0 | 6.0 | 0.00 | 0.05 | 0.00 | 60 | 1006.3 |
| 20260505094559 | 52 | 340 | 2.0 | 8.0 | 0.00 | 0.05 | 0.00 | 64 | 1006.0 |
| 20260505093102 | 53 | 339 | 2.0 | 5.0 | 0.00 | 0.05 | 0.00 | 62 | 1006.2 |
| 20260505091554 | 53 | 329 | 2.0 | 6.0 | 0.00 | 0.05 | 0.00 | 61 | 1006.3 |
| 20260505090050 | 53 | 5 | 3.0 | 13.0 | 0.00 | 0.05 | 0.00 | 60 | 1006.0 |
| 20260505084548 | 54 | 337 | 2.0 | 9.0 | 0.00 | 0.05 | 0.00 | 58 | 1005.5 |
| 20260505083044 | 54 | 286 | 2.0 | 7.0 | 0.00 | 0.05 | 0.00 | 59 | 1004.8 |
| 20260505081551 | 54 | 285 | 2.0 | 7.0 | 0.00 | 0.05 | 0.00 | 58 | 1004.3 |
| 20260505080048 | 55 | 300 | 2.0 | 5.0 | 0.00 | 0.05 | 0.00 | 56 | 1003.8 |
| 20260505074536 | 55 | 317 | 2.0 | 5.0 | 0.00 | 0.05 | 0.00 | 56 | 1003.7 |
| 20260505073039 | 55 | 313 | 3.0 | 8.0 | 0.00 | 0.05 | 0.00 | 56 | 1003.5 |
| 20260505071537 | 55 | 290 | 1.0 | 4.0 | 0.00 | 0.05 | 0.00 | 57 | 1003.5 |
| 20260505070032 | 55 | 300 | 1.0 | 4.0 | 0.00 | 0.05 | 0.00 | 59 | 1003.1 |
| 20260505064509 | 55 | 300 | 0.0 | 0.0 | 0.00 | 0.05 | 0.00 | 62 | 1003.1 |
| 20260505063004 | 55 | 300 | 0.0 | 0.0 | 0.00 | 0.05 | 0.00 | 61 | 1003.0 |
| 20260505061507 | 56 | 300 | 0.0 | 0.0 | 0.00 | 0.05 | 0.00 | 59 | 1002.9 |
| 20260505060001 | 56 | 300 | 0.0 | 3.0 | 0.00 | 0.05 | 0.00 | 58 | 1002.9 |
| 20260505054600 | 56 | 300 | 0.0 | 1.0 | 0.00 | 0.05 | 0.00 | 59 | 1002.7 |
| 20260505053058 | 57 | 300 | 0.0 | 0.0 | 0.00 | 0.05 | 0.00 | 59 | 1002.7 |
| 20260505051555 | 57 | 300 | 0.0 | 4.0 | 0.00 | 0.05 | 0.00 | 60 | 1002.6 |
| 20260505041552 | 59 | 300 | 0.0 | 1.0 | 0.00 | 0.05 | 0.05 | 81 | 1001.7 |
| 20260505040052 | 59 | 300 | 0.0 | 3.0 | 0.00 | 0.05 | 0.05 | 81 | 1001.6 |
| 20260505034552 | 60 | 300 | 0.0 | 1.0 | 0.00 | 0.05 | 0.05 | 82 | 1001.7 |
| 20260505033052 | 60 | 300 | 0.0 | 3.0 | 0.00 | 0.05 | 0.05 | 82 | 1001.6 |
| 20260505031553 | 60 | 300 | 0.0 | 2.0 | 0.00 | 0.05 | 0.05 | 81 | 1001.5 |
| 20260505030050 | 60 | 300 | 0.0 | 5.0 | 0.00 | 0.05 | 0.05 | 81 | 1001.2 |
| 20260505024552 | 60 | 334 | 1.0 | 4.0 | 0.00 | 0.05 | 0.05 | 82 | 1000.8 |
| 20260505023052 | 61 | 223 | 0.0 | 3.0 | 0.00 | 0.05 | 0.05 | 80 | 1000.9 |
| 20260505021547 | 62 | 223 | 0.0 | 1.0 | 0.00 | 0.05 | 0.05 | 77 | 1000.4 |
| 20260505020050 | 63 | 223 | 0.0 | 2.0 | 0.00 | 0.05 | 0.05 | 75 | 999.8 |
| 20260505014552 | 63 | 223 | 0.0 | 3.0 | 0.00 | 0.05 | 0.05 | 75 | 999.6 |
| 20260505013045 | 63 | 114 | 0.0 | 3.0 | 0.00 | 0.05 | 0.05 | 76 | 999.4 |
| 20260505011547 | 63 | 216 | 0.0 | 4.0 | 0.00 | 0.05 | 0.05 | 77 | 999.1 |
| 20260505010104 | 63 | 292 | 1.0 | 7.0 | 0.00 | 0.05 | 0.05 | 76 | 999.3 |
| 20260505004543 | 63 | 174 | 1.0 | 5.0 | 0.00 | 0.05 | 0.05 | 77 | 999.2 |
| 20260505003045 | 64 | 355 | 1.0 | 6.0 | 0.01 | 0.05 | 0.05 | 80 | 999.5 |
| 20260505001542 | 65 | 155 | 1.0 | 4.0 | 0.01 | 0.05 | 0.05 | 78 | 998.1 |
| 20260505000046 | 66 | 175 | 1.0 | 4.0 | 0.01 | 0.05 | 0.05 | 76 | 998.4 |
| 20260504234640 | 67 | 263 | 1.0 | 3.0 | 0.02 | 0.05 | 0.05 | 75 | 998.7 |
| 20260504233040 | 68 | 263 | 0.0 | 4.0 | 0.01 | 0.04 | 0.04 | 69 | 998.2 |
| 20260504231545 | 68 | 262 | 2.0 | 8.0 | 0.01 | 0.04 | 0.04 | 66 | 998.3 |
| 20260504230044 | 72 | 263 | 2.0 | 4.0 | 0.01 | 0.04 | 0.04 | 66 | 997.6 |
| 20260504224538 | 72 | 303 | 2.0 | 4.0 | 0.03 | 0.03 | 0.03 | 61 | 997.8 |